Miscellaneous Local Product
Issued by NWS Hastings, NE

Home | Current Version | Previous Version | Graphics & Text | Print | Product List | Glossary On
Versions: 1 2 3 4 5 6 7 8 9 10 11 12 13 14 15 16 17 18 19 20 21 22 23 24 25 26 27 28 29 30 31 32 33 34 35 36 37 38 39 40 41 42 43 44 45 46 47 48 49 50
000
AXUS43 KGID 240502
MISGRI

GID CWA HOURLY WEATHER ROUNDUP
NATIONAL WEATHER SERVICE HASTINGS NE
1200 AM CDT FRI OCT 24 2014

NOTE: "FAIR" INDICATES FEW OR NO CLOUDS BELOW 12,000 FEET WITH NO
SIGNIFICANT WEATHER AND/OR OBSTRUCTIONS TO VISIBILITY.

...SOUTH CENTRAL NEBRASKA...

CITY           SKY/WX    TMP DP  RH WIND       PRES   REMARKS
GRAND ISLAND   PTCLDY    58  55  90 S9        29.99F
HASTINGS       PTCLDY    54  52  93 S6        30.00F FOG
KEARNEY        CLEAR     55  54  94 S10       30.01F
ORD            CLEAR     55  52  89 S5        29.96S
YORK           MOCLDY    57  55  94 S8        30.00F
AURORA         PTCLDY    58  56  94 S7        30.00S
LEXINGTON      PTCLDY    60  56  87 SW8       30.00S
HOLDREGE       CLEAR     55  54  94 CALM      30.02R FOG
HEBRON         MOCLDY    62  57  84 S9        30.02F

...NEBRASKA PANHANDLE...

CITY           SKY/WX    TMP DP  RH WIND       PRES   REMARKS
CHADRON        PTCLDY    43  34  70 CALM      29.94F
ALLIANCE       PTCLDY    44  32  62 W8        30.00S
SCOTTSBLUFF    MOCLDY    46  36  68 E3        30.02S
SIDNEY         PTCLDY    44  34  67 W7        30.06S

...WESTERN AND NORTH CENTRAL NEBRASKA...

CITY           SKY/WX    TMP DP  RH WIND       PRES   REMARKS
VALENTINE      PTCLDY    45  37  73 SW6       29.91F
AINSWORTH      PTCLDY    56  45  64 SW14      29.92S
ONEILL         CLEAR     56  54  91 S7        29.92F
BROKEN BOW     PTCLDY    58  53  84 SW6       29.97F
IMPERIAL       PTCLDY    52  44  74 SW7       30.03R
NORTH PLATTE   PTCLDY    53  49  86 W3        29.99S
MCCOOK         PTCLDY    59  55  87 SW8       30.02F

...EASTERN NEBRASKA...

CITY           SKY/WX    TMP DP  RH WIND       PRES   REMARKS
NORFOLK        MOCLDY    57  53  86 S9        29.96F
SO SIOUX CITY  MOCLDY    50  46  86 E7        29.97F
TEKAMAH        MOCLDY    51  47  86 S5        29.99F
COLUMBUS       CLOUDY    50  45  81 CALM      30.00S
ALBION         MOCLDY    53  50  92 SE5       29.97F FOG
OMAHA EPPLEY   CLOUDY    56  49  77 S8        30.01S
OFFUTT AFB     MOCLDY    52  52 100 E3        30.01S
MILLARD        MOCLDY    53  50  91 CALM      30.01S
LINCOLN        CLOUDY    55  50  83 S5        30.02S
NEBRASKA CITY  MOCLDY    57  52  84 S8        30.03S
BEATRICE       CLOUDY    58  54  85 S9        30.03S
FALLS CITY     PTCLDY    61  59  93 S9        30.03F

...NORTHERN KANSAS...

CITY           SKY/WX    TMP DP  RH WIND       PRES   REMARKS
GOODLAND       MOCLDY    59  52  77 SW15      30.08F
HILL CITY      CLEAR     59  54  83 SW3       30.04S
NORTON         CLEAR     55  50  82 S6        30.02S
PHILLIPSBURG   FOG       54  54 100 CALM      30.03S VSB 1/2
SMITH CENTER   CLEAR     52  52 100 SE7       30.03F FOG
BELOIT         CLEAR     59  57  94 SE7       30.03S
HAYS           CLEAR     57  52  82 S7        30.06F
RUSSELL        CLEAR     59  56  89 S10       30.04F
CONCORDIA      MOCLDY    62  60  93 S13       30.04S
SALINA         PTCLDY    61  57  87 S6        30.06R
TOPEKA         PTCLDY    60  59  96 S7        30.07F



USA.gov is the U.S. government's official web portal to all federal, state and local government web resources and services.